Regional Weather Roundup
Issued by NWS Grand Forks, ND

Home | Current Version | Previous Version | Graphics & Text | Print | Product List | Glossary On
Versions: 1 2 3 4 5 6 7 8 9 10 11 12 13 14 15 16 17 18 19 20 21 22 23 24 25 26 27 28 29 30 31 32 33 34 35 36 37 38 39 40 41 42 43 44 45 46 47 48 49 50
000
ASUS43 KFGF 212310
RWRFGF
PRAIRIE TO PINES  WEATHER ROUNDUP
NATIONAL WEATHER SERVICE EASTERN NORTH DAKOTA/GRAND FORKS ND
600 PM CDT THU AUG 21 2014

 **SATELLITE DATA USED TO AUGMENT SKY COVER AT AUTOMATED STATIONS**
 *****  WEATHER ACROSS EASTERN NORTH DAKOTA  *****

CITY           SKY/WX    TMP DP  RH WIND       PRES   REMARKS
GRAND FORKS    PTSUNNY   78  68  71 CALM      29.81R
GRAND FRKS AFB PTSUNNY   77  70  80 SE6       29.82S
GRAND FRKS NWS   N/A     63 N/A N/A MISG        N/A
DEVILS LAKE    MOSUNNY   77  64  65 NW10      29.84R
FARGO          CLOUDY    76  71  85 E3        29.81S
WAHPETON ARPT  MOCLDY    77  68  73 CALM      29.82R
$$

 ***** WEATHER ACROSS CENTRAL AND WESTERN NORTH DAKOTA  *****

CITY           SKY/WX    TMP DP  RH WIND       PRES   REMARKS
BISMARCK       MOSUNNY   82  62  50 N13       29.89S
MINOT          MOSUNNY   76  63  64 N10       29.89R
JAMESTOWN      MOSUNNY   79  67  66 NW14      29.84R
MINOT AFB      PTSUNNY   75  65  69 N9        29.90R
GARRISON         N/A     79  60  52 NW12      29.91R
WILLISTON      PTSUNNY   76  56  49 N8        29.96S
DICKINSON      MOSUNNY   76  60  57 N12       29.95R
HETTINGER      MOSUNNY   80  57  45 N9        29.95R
$$

 *****  OTHER AIRPORT OBSERVATIONS IN OUR AREA  *****

CITY           SKY/WX    TMP DP  RH WIND       PRES   REMARKS
WALHALLA         N/A     73  73 100 E3        29.84S
GRAFTON AIRPOR MOCLDY    75  68  78 NE5       29.82R
VALLEY CITY AR MOCLDY    77  72  83 N3        29.84R
CANDO          FAIR      73  66  78 NE12G18   29.87S
CAVALIER APRT  CLOUDY    73  66  78 N7        29.83R
GWINNER        PTCLDY    81  70  69 N9        29.84R
SHEYENNE NWR     N/A     83  70  63 N6        29.95
ROLLA          CLOUDY    72  70  94 N10       29.91R
 ***** THE ABOVE OBSERVATIONS ARE NON NWS ARE NOT QUALITY
       CONTROLLED AND MAY MIS-REPORT RAIN FOR SNOW...
$$

  *****  WEATHER ACROSS NORTHERN MINNESOTA  *****

CITY           SKY/WX    TMP DP  RH WIND       PRES   REMARKS
FLAG ISLAND    CLOUDY    66  63  88 E7        29.88R
WARROAD        MOSUNNY   68  64  88 E10       29.87S
ROSEAU         MOSUNNY   72  64  78 E7        29.86R
HALLOCK        SUNNY     73  66  78 E10       29.83R
THF RVR FALLS  CLOUDY    75  66  73 SE6       29.84R
BAUDETTE       CLOUDY    69  64  84 E9        29.87S
WASKISH        CLOUDY    73  66  78 CALM      29.87R
CROOKSTON      PTSUNNY   77  68  73 CALM      29.82S
$$
  *****  WEATHER ACROSS CENTRAL AND WEST MINNESOTA  *****

CITY           SKY/WX    TMP DP  RH WIND       PRES   REMARKS
FOSSTON        PTSUNNY   73  64  73 SE7       29.86R
BEMIDJI        CLOUDY    73  66  79 E6        29.86S
PARK RAPIDS    CLOUDY    72  67  84 S6        29.86R
ELBOW LAKE     CLOUDY    77  71  81 E7        29.83S
WADENA         CLOUDY    70  68  94 SE7       29.85S FOG
DETROIT LAKES  CLOUDY    72  68  88 SE7       29.86R
MOORHEAD       PTSUNNY   75  73  94 CALM      29.83R
FERGUS FALLS   CLOUDY    75  66  73 E6        29.82R
MORRIS MN      MOSUNNY   82  70  65 N5        29.82R
STAPLES        CLOUDY    70  66  88 CALM      29.86S
$$
  *****  WEATHER ELSEWHERE ACROSS MINNESOTA  *****

CITY           SKY/WX    TMP DP  RH WIND       PRES   REMARKS
DULUTH         CLOUDY    65  60  84 E9        29.90R
INTRNTL FALLS  CLOUDY    68  62  81 E12       29.90R
ELY            CLOUDY    64  57  77 E3        29.94R
CLOQUET        CLOUDY    64  61  88 E7        29.90R
WHEATON        SUNNY     79  68  69 NW3       29.83S
BRAINERD       CLOUDY    69  66  90 E6        29.86R
HIBBING        CLOUDY    72  62  71 SE9       29.90R
ALEXANDRIA     CLOUDY    73  69  87 E6        29.86R
SAINT CLOUD    PTSUNNY   78  71  79 CALM      29.82R
MINNEAPOLIS    MOSUNNY   83  73  72 NE7       29.79S
$$

  *****  WEATHER ACROSS SOUTH DAKOTA  *****

CITY           SKY/WX    TMP DP  RH WIND       PRES   REMARKS
SIOUX FALLS    MOSUNNY   87  70  56 NW10      29.83S HX  92
BROOKINGS      NOT AVBL
WATERTOWN      SUNNY     81  67  62 N13       29.85R
HURON          SUNNY     85  64  49 N10       29.84R
SISSETON         N/A     83  71  67 NE8       29.81R
ABERDEEN       SUNNY     82  66  58 NW14      29.85R
MITCHELL       SUNNY     87  70  56 N6        29.84R HX  92
PIERRE         SUNNY     87  60  40 CALM      29.87R
MOBRIDGE       SUNNY     82  63  52 N10       29.87R
RAPID CITY     PTSUNNY   75  63  66 N7        29.95S
$$

  *****  SOME WEATHER IN NEARBY STATES *****

CITY           SKY/WX    TMP DP  RH WIND       PRES   REMARKS
GLASGOW MT     LGT RAIN  64  59  83 S3        30.01R
GREAT FALLS MT CLOUDY    63  51  65 N10       30.09S
CHEYENNE WY    LGT RAIN  74  45  35 CALM      30.14S
SCOTTSBLUFF NE MOSUNNY   89  43  20 W7        29.99F
OMAHA NE       MOSUNNY   92  69  47 W8        29.84R HX  97
DES MOINES IA  MOSUNNY   87  74  64 S12       29.85S HX  95
DAVENPORT IA   RAIN      77  73  87 SE9       29.90F FOG
CHICAGO IL     PTSUNNY   76  71  85 SE10      29.90F
EAU CLAIRE WI  CLOUDY    78  71  79 S9        29.84S
LA CROSSE WI   MOSUNNY   83  72  69 SE12      29.85R
$$

  *****  SOME NATIONAL WEATHER *****

CITY           SKY/WX    TMP DP  RH WIND       PRES   REMARKS
LA GUARDIA NY  MOCLDY    76  56  49 SE13      30.01S
RALEIGH NC     PTSUNNY   86  68  54 NW3       30.04R
ATLANTA GA     PTSUNNY   82  70  66 W5        30.11R
NEW ORLEANS LA CLOUDY    80  75  84 CALM      30.10F
OKLAHOMA CITY  MOSUNNY   96  68  39 S20       29.91S HX 101
ALBUQUERQUE NM PTSUNNY   88  29  12 S12       30.09F
SALT LAKE CITY PTSUNNY   79  43  27 S9        30.02F
LOS ANGELES CA MOSUNNY   74  61  63 W14       29.91F
BOISE ID       CLOUDY    82  37  20 N8        29.91F
SEATTLE WA     MOSUNNY   68  51  54 W6        30.01F
$$

*** WEATHER ACROSS MANITOBA...SASKATCHEWAN AND ONTARIO ***
                ***ONTARIO***

CITY           SKY/WX    TMP DP  RH WIND       PRES   REMARKS
GERALDTON      PTSUNNY   70  63  78 E6        29.99F
THUNDER BAY    CLOUDY    63  61  94 E10       29.97S
SIOUX LOOKOUT  CLOUDY    70  59  68 S8        29.94R
TORONTO        MOSUNNY   79  63  57 NW12      29.94S
BIG TROUT LK   CLOUDY    72  61  68 S5        29.93S
PICKLE LAKE    CLOUDY    70  59  68 SE7       29.96S
DRYDEN         PTSUNNY   70  59  68 SE6       29.93R
KENORA         LGT RAIN  66  61  82 E5        29.91S
$$
                *** MANITOBA***

CITY           SKY/WX    TMP DP  RH WIND       PRES   REMARKS
BRANDON        LGT RAIN  68  64  88 NE12G20   29.90R
DAUPHIN        CLOUDY    64  61  88 N9        29.95R
ISLAND LAKE    LGT RAIN  73  68  83 NW3       29.86R
PILOT MOUND      N/A     66  64  94 NE9         N/A
THE PAS        PTSUNNY   66  55  68 N12       30.00R
THOMPSON       CLOUDY    57  57 100 N7        29.98
WINNIPEG       TSTM      73  70  88 N8        29.84R
LYNN LAKE      CLOUDY    59  52  77 MISG      30.06R
CHURCHILL      CLOUDY    46  45  93 N22       29.95S
GILLAM         LGT RAIN  55  55 100 N14       29.92R
$$
                ***SASKATCHEWAN***

CITY           SKY/WX    TMP DP  RH WIND       PRES   REMARKS
ESTEVAN        PTSUNNY   72  57  60 N6        29.96S
KINDERSLEY     CLOUDY    61  48  63 N9        30.14S
LLOYDMINSTER   PTSUNNY   59  43  55 N9        30.17R
PRINCE ALBERT  PTSUNNY   63  54  72 N12       30.11R
REGINA         PTSUNNY   66  55  68 N15       30.03R
YORKTON        MOSUNNY   66  54  63 N16G22    30.00R
N. BATTLEFORD  MOSUNNY   59  48  67 N9        30.17R
LA RONGE       PTSUNNY   63  48  59 NW13      30.12R
SASKATOON      PTSUNNY   66  52  59 N16       30.11R
SWIFT CURRENT  LGT RAIN  57  57 100 N12       30.10R
$$
NOTE: THESE ARE AUTOMATED STATIONS WITH LIMITED QUALITY CONTROL
      "FAIR" INDICATES FEW OR NO CLOUDS BELOW 12,000 FEET WITH NO
      SIGNIFICANT WEATHER AND/OR OBSTRUCTIONS TO VISIBILITY.
      SKY/WX - SKY CONDITION AND SIGNIFICANT WEATHER.
      TMP - AIR TEMPERATURE.    DP   - DEWPOINT TEMPERATURE.
      RH  - RELATIVE HUMIDITY.  PRES - PRESSURE.
      HX  - HEAT INDEX.         WCI  - WIND CHILL INDEX.
$


USA.gov is the U.S. government's official web portal to all federal, state and local government web resources and services.